Overview Statistics Trail Chart Weather Telemetry Raw packets
 

This is the latest recevied weather packets stored in our database for station/object OE3CJB-13. If no packets are shown the sender has not sent any weather packets the latest 10 day(s).

<< 33 34 35 36 37 38 39 >>
Time Temp. Humidity Pressure Rain* Wind** Luminosity Snow
1787928330 32.78° C 25% 1162.4 hPa 0 mm - - -
1787927419 33.33° C 24% 1162.4 hPa 0 mm - - -
1787926555 33.33° C 24% 1162.3 hPa 0 mm - - -
1787925644 33.33° C 25% 1162.3 hPa 0 mm - - -
1787924765 33.33° C 24% 1164 hPa 0 mm - - -
1787923819 33.33° C 24% 1164.9 hPa 0 mm - - -
1787922954 33.33° C 24% 1165.6 hPa 0 mm - - -
1787922044 33.33° C 24% 1165.6 hPa 0 mm - - -
1787921130 32.78° C 24% 1165.7 hPa 0 mm - - -
1787920218 32.78° C 24% 1165.8 hPa 0 mm - - -
1787919355 32.78° C 24% 1165.8 hPa 0 mm - - -
1787918445 32.22° C 24% 1166.6 hPa 0 mm - - -
1787917535 32.22° C 25% 1165.3 hPa 0 mm - - -
1787916618 31.67° C 25% 1164.5 hPa 0 mm - - -
1787915754 31.67° C 27% 1164.6 hPa 0 mm - - -
1787914844 31.11° C 26% 1164.7 hPa 0 mm - - -
1787913930 31.11° C 27% 1165.7 hPa 0 mm - - -
1787913018 30.56° C 28% 1165.9 hPa 0 mm - - -
1787912154 30° C 29% 1166 hPa 0 mm - - -
1787911244 29.44° C 31% 1165.6 hPa 0 mm - - -
1787910331 29.44° C 31% 1167.4 hPa 0 mm - - -
1787909418 28.89° C 31% 1167.5 hPa 0 mm - - -
1787908554 28.33° C 32% 1169 hPa 0 mm - - -
1787907644 27.78° C 33% 1170 hPa 0 mm - - -
1787906731 27.78° C 34% 1169.8 hPa 0 mm - - -

* Rain latest hour (hover to see other rain measurements)
** Current wind speed in m/s (hover to see current wind gust speed)